Content
SEND FEEDBACK

Daily
Averages
Monthly
Summary
United States of America

LELAND GROVE, ILLINOIS


Home > North America > United States > Illinois
Elevation: 573 feet     Latitude: 39 50N     Longitude: 089 40W

WEATHER
 
SELECT A DAY
Number of Records: 203,145;   Date Range: 1/1/95 - 7/20/14
 
SHARE

PRINT THIS DATA

[ ← Previous Day ]
WEATHER ALMANAC - FEBRUARY 13, 2013
[ Next Day → ]
[ °C ]   °F
Weather ElementAverageHighLow
Temperature38 °F50 °F (2:52 pm)28.9 °F (1:52 am)
Dewpoint29 °F33.1 °F (11:52 am)26.1 °F (6:52 am)
Humidity72.3 %96 % (1:52 am)43 % (2:52 pm)
Barometer29.85 in29.94 in (1:52 am)29.80 in (1:52 pm)
Wind Speed7.6 mph17.3 mph (2:52 pm)
Wind Gust19.6 mph (12:52 pm)
Weather ElementAverage
Visibility9.3 mi
Wind DirectionSSW (193.5 °)

Weather ElementTotal
Precipitation---
Heating Degree Days25.6 (Base 65)
Averaged from 23 records on February 13, 2013
WEATHER CONDITIONS BREAKOUT
WIND DIRECTION BREAKOUT
WEATHER BY HOUR - FEBRUARY 13, 2013
[ °C ]   °F
Local TimeTemperatureDewpointHumidityBarometerVisibilityWind DirectionWind SpeedGust SpeedPrecipitationEventsConditions
1:52 AM28.9 °F28.0 °F96 %29.94 in6.0 miCalmClear
2:52 AM28.9 °F27.0 °F92 %29.92 in7.0 miCalmClear
3:52 AM30.0 °F27.0 °F88 %29.89 in8.0 miCalmClear
4:52 AM30.0 °F28.0 °F92 %29.88 in8.0 miCalmClear
5:52 AM30.0 °F27.0 °F88 %29.88 in8.0 miSouth (190°)4.6 mphClear
6:52 AM28.9 °F26.1 °F89 %29.87 in8.0 miSSW (200°)5.8 mphClear
7:52 AM30.9 °F27.0 °F85 %29.88 in10.0 miSW (220°)4.6 mphClear
8:52 AM36.0 °F28.0 °F73 %29.87 in10.0 miSW (220°)5.8 mphClear
9:52 AM39.0 °F28.0 °F65 %29.87 in10.0 miWSW (240°)8.1 mphClear
10:52 AM44.1 °F30.0 °F58 %29.86 in10.0 miSSW (200°)9.2 mphClear
11:52 AM46.0 °F33.1 °F61 %29.84 in10.0 miWest (260°)12.7 mphClear
12:52 PM48.0 °F32.0 °F54 %29.82 in10.0 miWSW (250°)13.8 mph19.6 mphClear
1:52 PM48.9 °F30.9 °F50 %29.80 in10.0 miWest (270°)16.1 mphClear
2:52 PM50.0 °F28.0 °F43 %29.80 in10.0 miWest (270°)17.3 mphClear
3:52 PM48.9 °F28.9 °F46 %29.81 in10.0 miWest (270°)17.3 mphClear
4:52 PM46.9 °F30.0 °F52 %29.81 in10.0 miWest (270°)10.4 mphClear
5:52 PM42.1 °F30.0 °F62 %29.82 in10.0 miWest (270°)9.2 mphClear
6:52 PM39.0 °F30.9 °F73 %29.84 in10.0 miWSW (250°)5.8 mphClear
7:52 PM36.0 °F30.0 °F79 %29.84 in10.0 miWSW (240°)5.8 mphClear
8:52 PM35.1 °F30.0 °F82 %29.84 in10.0 miSW (230°)4.6 mphClear
9:52 PM36.0 °F28.9 °F76 %29.83 in10.0 miSSW (200°)6.9 mphClear
10:52 PM34.0 °F28.0 °F79 %29.83 in10.0 miSSW (200°)6.9 mphClear
11:52 PM36.0 °F30.0 °F79 %29.82 in10.0 miSSW (200°)10.4 mphClear
Hourly data recorded from KSPI, located miles away from Leland Grove, Illinois







STORIES FROM OUR PARTNERS